Weather in Baklan

Russia / Bryansk Oblast     52°44′20″N   33°15′26″E
temp.,
°C
wind,
m/s
gust,
m/s
humid.,
%
clouds,
%
prec.,
mm/h
press.,
hPa
HPBL,
m
14 may, fri
fri1400:00+9se398784 0.0 1013181
03:00+9se4988100 0.0 1013177
06:00+9se41088100 0.0 1013231
09:00+14ese477287 0.0 1012399
12:00+19ese686748 0.0 1010995
15:00+20se5769100 1.8 10081248
18:00+18s488148 6.0 1006221
21:00+14s49922 8.5 1007168
15 may, sat
sat1500:00+12s34943 0.0 100754
03:00+11sse36955 0.0 100798
06:00+11s39965 0.0 1008232
09:00+15ssw58820 0.0 1009627
12:00+18ssw686959 0.4 10091367
15:00+17sw687798 1.8 10091011
18:00+17sw478056 0.3 1010860
21:00+13ssw358973 1.0 101168
16 may, sun
sun1600:00+11ssw37935 0.0 1011136
03:00+9s37955 0.0 1012137
06:00+9ssw37976 0.0 1013173
09:00+15sw458596 0.0 1014438
12:00+18ssw34686 0.0 10141085
15:00+20s455996 0.1 10131777
18:00+20s2470100 0.1 1012489
21:00+15sse228158 0.1 101212
17 may, mon
mon1700:00+13e3383100 0.0 101231
03:00+12e359021 0.0 101276
06:00+14ene41085100 0.0 1010263
09:00+17ene478398 0.0 1009329
12:00+22e566598 0.0 10061038
15:00+24sse61063100 0.0 10041732
18:00+22sse5107480 0.5 1004541
21:00+15nw5898100 3.8 1005238
18 may, tue
tue1800:00+14ne229896 6.3 100526
03:00+14nw3499100 7.1 1004114
06:00+14nw2399100 0.2 1004135
09:00+15w2293100 0.8 1005457
12:00+15wnw4492100 1.6 1006510
15:00+18wsw2480100 3.4 1006789
18:00+15wsw2491100 1.7 1006131
21:00+13s1190100 1.8 100610